This demonstration page uses our WeatherBlox Daily Observations layout. Learn more.

Left ArrowRight Arrow

Hourly Observations for April 6, 2016

Temp ( °F °C ) Dew Point ( °F °C ) Humidity (%) Winds ( mph kmh ) Pressure ( in mb ) Visibility ( mi km ) Precip ( " mm )
12:54 am 00:54 Clear 55 12.8 44 6.7 67 67 WSW 7 11 29.73 1007 10 16 0.00 0.00
1:54 am 01:54 Mostly Clear 55 12.8 35 1.7 47 47 NW 22 35 29.79 1009 10 16 0.00 0.00
2:54 am 02:54 Clear 53 11.7 31 -0.6 43 43 NW 17 28 29.79 1009 10 16 0.00 0.00
3:54 am 03:54 Clear 52 11.1 32 0 47 47 NW 26 43 29.77 1008 10 16 0.00 0.00
4:54 am 04:54 Clear 49 9.4 32 0 52 52 NW 20 31 29.80 1009 10 16 0.00 0.00
5:54 am 05:54 Clear 47 8.3 32 0 56 56 NW 16 26 29.80 1009 10 16 0.00 0.00
6:54 am 06:54 Mostly Cloudy 45 7.2 32 0 61 61 NW 13 20 29.81 1010 10 16 0.00 0.00
7:54 am 07:54 Sunny 44 6.7 32 0 63 63 NW 21 33 29.84 1010 10 16 0.00 0.00
8:54 am 08:54 Cloudy 46 7.8 31 -0.6 56 56 NW 23 37 29.86 1011 10 16 0.00 0.00
9:54 am 09:54 Cloudy 45 7.2 31 -0.6 58 58 NW 23 37 29.89 1012 10 16 0.00 0.00
10:54 am 10:54 Cloudy 48 8.9 32 0 54 54 NW 26 43 29.90 1013 10 16 0.00 0.00
11:54 am 11:54 Mostly Cloudy 51 10.6 33 0.6 50 50 NNW 24 39 29.91 1013 10 16 0.00 0.00
12:54 pm 12:54 Mostly Cloudy 56 13.3 34 1.1 44 44 NW 22 35 29.90 1012 10 16 0.00 0.00
1:54 pm 13:54 Mostly Sunny 58 14.4 33 0.6 39 39 NNW 22 35 29.89 1012 10 16 0.00 0.00
2:54 pm 14:54 Mostly Sunny 61 16.1 33 0.6 35 35 WNW 24 39 29.88 1012 10 16 0.00 0.00
3:54 pm 15:54 Sunny 62 16.7 28 -2.2 28 28 NW 30 48 29.84 1011 10 16 0.00 0.00
4:54 pm 16:54 Sunny 63 17.2 28 -2.2 27 27 NNW 24 39 29.83 1010 10 16 0.00 0.00
5:54 pm 17:54 Sunny 63 17.2 29 -1.7 28 28 NNW 25 41 29.83 1010 10 16 0.00 0.00
6:54 pm 18:54 Mostly Sunny 62 16.7 31 -0.6 31 31 NNW 17 28 29.84 1010 10 16 0.00 0.00
7:54 pm 19:54 Sunny 57 13.9 31 -0.6 37 37 N 14 22 29.84 1011 10 16 0.00 0.00
8:54 pm 20:54 Clear 50 10 31 -0.6 48 48 NNE 7 11 29.86 1011 10 16 0.00 0.00
9:54 pm 21:54 Clear 49 9.4 32 0 52 52 Calm 29.87 1011 10 16 0.00 0.00
10:54 pm 22:54 Clear 48 8.9 32 0 54 54 N 5 7 29.87 1012 10 16 0.00 0.00
11:54 pm 23:54 Clear 49 9.4 32 0 52 52 NNW 3 6 29.88 1012 10 16 0.00 0.00

Powered by AerisWeather